Date String (YYYY-MM-DD hh:mm:ss) UTC,Instrument flags,absolute air pressure of the measurement (hPa),sample flow rate (lpm),inlet stack bypass flow (lpm),air temperature of the measurement (°C),ambient temperature measured by the external sensor (°C),aerosol sample conditioner tube jacket temperature (°C),OPC LED temperature (°C),internal box temperature (°C),relative humidity of the measurement (%),span deviation,mass concentration of particles derived from Lorenz-Mie calculation of OPC scattering (μg/m³),mass concentration of particles derived from Lorenz-Mie calculation of OPC scattering (μg/m³),mass concentration of particles derived from Lorenz-Mie calculation of OPC scattering (μg/m³)
DateTimeUTC,F1_M11,P_M11,Q1_M11,Q2_M11,T1_M11,T2_M11,T3_M11,T4_M11,T5_M11,U1_M11,ZSPAN_M11,X0_M11,X2_M11,X1_M11
2023-12-01 12:00:00,SystemResetWarning,0820.7,5.00,000.00,018.9,018.2,000.0,027.3,020.2,15.9,0000.3,0014.65,0008.78,0008.05
2023-12-01 12:01:00,SystemResetWarning,0820.7,5.00,000.00,018.9,018.1,000.0,027.3,020.1,15.9,0000.9,0014.76,0008.78,0008.05
2023-12-01 12:02:00,SystemResetWarning,0820.9,5.01,000.00,018.9,018.0,000.0,027.3,020.1,16.0,0001.5,0014.87,0008.80,0008.06
2023-12-01 12:03:00,SystemResetWarning,0821.0,5.00,000.00,018.9,018.0,000.0,027.3,020.0,16.0,0002.2,0014.99,0008.78,0008.06
2023-12-01 12:04:00,SystemResetWarning,0820.8,5.00,000.00,018.9,017.9,000.0,027.3,020.0,16.0,0002.3,0015.26,0008.78,0008.05
2023-12-01 12:05:00,SystemResetWarning,0820.6,5.00,000.00,018.8,017.9,000.0,027.3,020.0,16.0,0002.4,0015.15,0008.78,0008.05
2023-12-01 12:06:00,SystemResetWarning,0820.7,4.99,000.00,018.8,017.9,000.0,027.3,020.0,16.0,0002.5,0014.42,0008.77,0008.05
2023-12-01 12:07:00,SystemResetWarning,0820.6,5.00,000.00,018.8,017.9,000.0,027.3,020.0,16.1,0002.9,0014.59,0008.78,0008.05
2023-12-01 12:08:00,SystemResetWarning,0820.7,5.00,000.00,018.8,017.8,000.0,027.3,020.0,16.1,0003.1,0015.34,0008.80,0008.06
2023-12-01 12:09:00,SystemResetWarning,0820.7,5.00,000.00,018.8,017.8,000.0,027.2,020.0,16.1,0002.8,0015.51,0008.77,0008.06
2023-12-01 12:10:00,SystemResetWarning,0820.9,5.00,000.00,018.8,017.8,000.0,027.2,020.0,16.1,0003.1,0015.58,0008.75,0008.05
2023-12-01 12:11:00,SystemResetWarning,0821.0,5.01,000.00,018.8,017.8,000.0,027.2,020.0,16.1,0003.3,0015.69,0008.76,0008.06
2023-12-01 12:12:00,SystemResetWarning,0820.8,5.00,000.00,018.8,017.8,000.0,027.2,020.0,16.1,0003.3,0015.24,0008.77,0008.08
2023-12-01 12:13:00,SystemResetWarning,0820.7,5.00,000.00,018.8,017.8,000.0,027.3,020.0,16.1,0003.1,0015.36,0008.78,0008.10
2023-12-01 12:14:00,SystemResetWarning,0820.4,5.00,000.00,018.8,017.8,000.0,027.3,020.0,16.0,0002.4,0015.22,0008.80,0008.11
2023-12-01 12:15:00,SystemResetWarning,0820.6,5.00,000.00,018.8,017.8,000.0,027.2,020.0,16.0,0002.0,0014.84,0008.81,0008.12
2023-12-01 12:16:00,SystemResetWarning,0820.5,5.00,000.00,018.8,017.7,000.0,027.2,020.0,16.0,0002.5,0014.65,0008.84,0008.14
2023-12-01 12:17:00,SystemResetWarning,0820.5,5.00,000.00,018.8,017.7,000.0,027.2,020.0,16.0,0002.4,0014.69,0008.82,0008.14
2023-12-01 12:18:00,SystemResetWarning,0820.9,5.00,000.00,018.8,017.7,000.0,027.2,020.0,16.0,0002.1,0015.07,0008.82,0008.14
2023-12-01 12:19:00,SystemResetWarning,0820.8,4.99,000.00,018.8,017.7,000.0,027.2,020.0,15.9,0001.6,0014.28,0008.79,0008.14
2023-12-01 12:20:00,SystemResetWarning,0820.7,4.99,000.00,018.7,017.6,000.0,027.2,020.0,15.9,0001.4,0013.72,0008.81,0008.14
2023-12-01 12:21:00,SystemResetWarning,0820.8,5.00,000.00,018.7,017.6,000.0,027.2,020.0,15.8,0001.5,0014.19,0008.86,0008.14
2023-12-01 12:22:00,SystemResetWarning,0820.8,5.01,000.00,018.7,017.6,000.0,027.2,020.0,15.8,0001.5,0014.29,0008.84,0008.16
2023-12-01 12:23:00,SystemResetWarning,0820.7,5.00,000.00,018.7,017.6,000.0,027.2,020.0,15.8,0001.0,0015.23,0008.87,0008.18
2023-12-01 12:24:00,SystemResetWarning,0820.6,5.00,000.00,018.7,017.6,000.0,027.2,020.0,15.8,0001.1,0015.53,0008.92,0008.21
2023-12-01 12:25:00,SystemResetWarning,0820.7,5.00,000.00,018.7,017.6,000.0,027.2,020.1,15.8,0001.2,0015.62,0008.97,0008.24
2023-12-01 12:26:00,SystemResetWarning,0820.5,5.01,000.00,018.8,017.9,000.0,027.2,020.5,15.8,0001.6,0015.66,0008.98,0008.25
2023-12-01 12:27:00,SystemResetWarning,0820.6,5.00,000.00,018.9,018.6,000.0,027.2,020.8,15.7,0001.1,0016.29,0009.00,0008.30
2023-12-01 12:28:00,SystemResetWarning,0820.6,4.99,000.00,019.0,018.9,000.0,027.2,020.7,15.6,0001.1,0016.37,0009.04,0008.34
2023-12-01 12:29:00,SystemResetWarning,0820.5,5.00,000.00,019.0,018.8,000.0,027.2,020.5,15.6,0001.4,0016.19,0009.06,0008.38
2023-12-01 12:30:00,SystemResetWarning,0820.6,5.00,000.00,019.0,018.7,000.0,027.2,020.4,15.5,0001.7,0015.70,0009.09,0008.42
2023-12-01 12:31:00,SystemResetWarning,0820.6,5.00,000.00,019.0,018.6,000.0,027.2,020.3,15.5,0002.2,0015.95,0009.13,0008.45
2023-12-01 12:32:00,SystemResetWarning,0820.5,5.00,000.00,019.0,018.5,000.0,027.2,020.2,15.5,0002.1,0015.71,0009.15,0008.51
2023-12-01 12:33:00,SystemResetWarning,0820.5,5.00,000.00,019.0,018.4,000.0,027.2,020.2,15.6,0002.0,0015.31,0009.19,0008.55
2023-12-01 12:34:00,SystemResetWarning,0820.5,5.00,000.00,019.0,018.3,000.0,027.2,020.1,15.6,0002.2,0014.33,0009.22,0008.58
2023-12-01 12:35:00,SystemResetWarning,0820.7,4.99,000.00,019.0,018.3,000.0,027.2,020.1,15.6,0002.2,0013.96,0009.21,0008.60
2023-12-01 12:36:00,SystemResetWarning,0820.6,5.00,000.00,019.0,018.2,000.0,027.2,020.0,15.6,0001.7,0013.61,0009.19,0008.61
2023-12-01 12:37:00,SystemResetWarning,0820.5,5.01,000.00,018.9,018.2,000.0,027.2,020.0,15.6,0001.7,0014.01,0009.19,0008.63
2023-12-01 12:38:00,SystemResetWarning,0820.6,5.00,000.00,018.9,018.1,000.0,027.2,020.0,15.6,0002.2,0013.56,0009.22,0008.65
2023-12-01 12:39:00,SystemResetWarning,0820.5,5.00,000.00,018.9,018.1,000.0,027.2,020.0,15.6,0002.5,0013.76,0009.28,0008.66
2023-12-01 12:40:00,SystemResetWarning,0820.5,5.01,000.00,018.9,018.1,000.0,027.2,020.0,15.6,0001.9,0014.33,0009.31,0008.67
2023-12-01 12:41:00,SystemResetWarning,0820.5,5.00,000.00,018.9,018.0,000.0,027.2,020.0,15.6,0002.0,0014.46,0009.35,0008.69
2023-12-01 12:42:00,SystemResetWarning,0820.6,5.00,000.00,018.9,018.0,000.0,027.2,020.0,15.6,0002.4,0014.54,0009.41,0008.72
2023-12-01 12:43:00,SystemResetWarning,0820.6,5.00,000.00,018.9,018.0,000.0,027.2,020.0,15.7,0003.0,0014.68,0009.45,0008.72
2023-12-01 12:44:00,SystemResetWarning,0820.6,4.99,000.00,018.9,018.0,000.0,027.2,020.0,15.8,0003.1,0015.11,0009.48,0008.72
2023-12-01 12:45:00,SystemResetWarning,0820.7,4.99,000.00,018.8,018.0,000.0,027.2,020.0,15.8,0002.9,0015.24,0009.50,0008.73
2023-12-01 12:46:00,SystemResetWarning,0820.5,5.00,000.00,018.8,017.9,000.0,027.2,020.0,15.8,0003.0,0016.22,0009.55,0008.74
2023-12-01 12:47:00,SystemResetWarning,0820.5,4.99,000.00,018.8,017.9,000.0,027.2,020.0,15.8,0003.4,0016.53,0009.58,0008.76
2023-12-01 12:48:00,SystemResetWarning,0820.5,5.00,000.00,018.8,017.9,000.0,027.2,020.0,15.9,0003.6,0016.41,0009.63,0008.77
2023-12-01 12:49:00,SystemResetWarning,0820.6,5.00,000.00,018.8,017.9,000.0,027.2,020.0,15.9,0003.4,0016.22,0009.64,0008.76
2023-12-01 12:50:00,SystemResetWarning,0820.6,5.00,000.00,018.8,017.9,000.0,027.2,020.0,15.9,0003.3,0015.88,0009.58,0008.79
2023-12-01 12:51:00,SystemResetWarning,0820.6,5.00,000.00,018.8,017.8,000.0,027.2,020.0,15.9,0002.7,0015.34,0009.57,0008.79
2023-12-01 12:52:00,SystemResetWarning,0820.6,5.01,000.00,018.8,017.8,000.0,027.2,020.0,15.9,0002.6,0015.31,0009.58,0008.79
2023-12-01 12:53:00,SystemResetWarning,0820.6,5.01,000.00,018.8,017.8,000.0,027.2,020.0,16.0,0002.6,0014.99,0009.52,0008.77
2023-12-01 12:54:00,SystemResetWarning,0820.6,5.00,000.00,018.8,017.8,000.0,027.3,020.0,16.0,0001.9,0014.85,0009.48,0008.75
2023-12-01 12:55:00,SystemResetWarning,0820.6,5.00,000.00,018.8,017.7,000.0,027.3,020.0,16.1,0001.8,0014.43,0009.45,0008.75
2023-12-01 12:56:00,SystemResetWarning,0820.6,5.00,000.00,018.8,017.7,000.0,027.3,020.0,16.1,0001.9,0014.62,0009.47,0008.75
2023-12-01 12:57:00,SystemResetWarning,0820.6,4.99,000.00,018.8,017.7,000.0,027.2,020.0,16.1,0002.1,0013.78,0009.42,0008.74
2023-12-01 12:58:00,SystemResetWarning,0820.6,4.99,000.00,018.8,017.7,000.0,027.2,020.0,16.1,0002.1,0014.01,0009.39,0008.72
2023-12-01 12:59:00,SystemResetWarning,0820.7,4.99,000.00,018.8,017.7,000.0,027.2,020.0,16.1,0001.9,0013.98,0009.37,0008.72
